Location: Nakusp
(50.2330°N, 117.8000°W)
Time: 13:42:24
(UTC-07:00)

Cosmos 1939 Rocket - Visible Passes

Search period start: 28 August 2016 00:00
Search period end: 07 September 2016 00:00
Orbit: 533 x 588 km, 97.6° (Epoch: 27 August)

Date Brightness Start Highest point End Pass type
(mag) Time Alt. Az. Time Alt. Az. Time Alt. Az.
28 Aug 2.9 21:00:58 10° SSE 21:05:07 87° ENE 21:09:19 10° NNW visible
28 Aug 5.8 22:39:24 10° WSW 22:40:41 11° W 22:41:58 10° WNW visible
29 Aug 2.9 21:00:05 11° SSE 21:04:08 86° ENE 21:08:21 10° NNW visible
29 Aug 5.8 22:38:16 10° WSW 22:39:42 11° W 22:41:07 10° WNW visible
30 Aug 2.9 20:59:13 11° SSE 21:03:09 84° ENE 21:07:22 10° NNW visible
30 Aug 5.8 22:37:10 10° WSW 22:38:42 12° W 22:40:14 10° WNW visible
31 Aug 2.9 20:58:21 12° SSE 21:02:11 82° ENE 21:06:23 10° NNW visible
31 Aug 5.8 22:36:04 10° WSW 22:37:42 12° W 22:39:21 10° WNW visible
01 Sep 2.9 20:57:30 13° SSE 21:01:12 81° ENE 21:05:24 10° NNW visible
01 Sep 5.7 22:34:58 10° WSW 22:36:43 12° W 22:38:27 10° WNW visible
02 Sep 2.9 20:56:38 14° SSE 21:00:13 79° ENE 21:04:25 10° N visible
02 Sep 5.7 22:33:53 10° WSW 22:35:42 13° W 22:37:32 10° WNW visible
03 Sep 2.9 20:55:46 15° SSE 20:59:14 77° ENE 21:03:25 10° N visible
03 Sep 5.7 22:32:48 10° WSW 22:34:43 13° W 22:36:38 10° WNW visible
04 Sep 2.9 20:54:54 15° SSE 20:58:15 76° ENE 21:02:26 10° N visible
04 Sep 5.7 22:31:44 10° WSW 22:33:42 13° W 22:35:42 10° WNW visible
05 Sep 2.9 20:54:02 16° SSE 20:57:15 74° ENE 21:01:26 10° N visible
05 Sep 5.7 22:30:39 10° WSW 22:32:42 13° W 22:34:46 10° WNW visible
06 Sep 2.9 20:53:10 17° SSE 20:56:16 72° ENE 21:00:26 10° N visible
06 Sep 5.7 22:29:34 10° WSW 22:31:42 14° W 22:33:50 10° WNW visible
